User: anonymous   Login
Location: Saint-Usage
(47.1052°N, 5.2587°E)
Time: 22:17:22
(UTC+01:00)
Language:

AO-91 - Orbit

View from above orbital plane
View from above orbital plane
View from above satellite
View from above satellite

Ground track
Ground track

The orbit data is extracted from the following two-line orbital elements,

1 43017U 17073E   21339.00883707  .00001039  00000-0  83613-4 0  9992
2 43017  97.6925 236.1157 0254864 103.5715 259.4023 14.79987700218346
Epoch (UTC): 05 December 2021 00:12:43
Eccentricity: 0.0254864
inclination: 97.6925°
perigee height: 451 km
apogee height: 808 km
right ascension of ascending node: 236.1157°
argument of perigee: 103.5715°
revolutions per day: 14.79987700
mean anomaly at epoch: 259.4023°
orbit number at epoch: 21834

The dashed part of the orbit path shows where the satellite is in the earth's shadow,  

DLR